Time,TemperatureF,DewpointF,PressureIn,WindDirection,WindDirectionDegrees,WindSpeedMPH,WindSpeedGustMPH,Humidity,HourlyPrecipIn,Conditions,Clouds,dailyrainin,SoftwareType,DateUTC
2013-08-16 00:15:00,60.8,58.5,30.02,West,270,3.2,-999.0,92,-99.99,,,0.00,Acu-Link.com,2013-08-16 04:15:00,
2013-08-16 00:30:00,60.6,58.0,30.02,West,270,2.7,-999.0,91,-99.99,,,0.00,Acu-Link.com,2013-08-16 04:30:00,
2013-08-16 00:45:00,60.8,57.8,30.02,ESE,112,2.2,-999.0,90,-99.99,,,0.00,Acu-Link.com,2013-08-16 04:45:00,
2013-08-16 01:00:00,60.8,57.8,30.02,ENE,67,2.2,-999.0,90,-99.99,,,0.00,Acu-Link.com,2013-08-16 05:00:00,
2013-08-16 01:16:00,60.8,57.8,30.02,NE,45,2.2,-999.0,90,-99.99,,,0.00,Acu-Link.com,2013-08-16 05:16:00,
2013-08-16 01:31:00,60.6,58.0,30.02,West,270,0.0,-999.0,91,-99.99,,,0.00,Acu-Link.com,2013-08-16 05:31:00,
2013-08-16 01:46:00,60.6,58.0,30.01,WNW,292,0.0,-999.0,91,-99.99,,,0.00,Acu-Link.com,2013-08-16 05:46:00,
2013-08-16 02:01:00,60.6,58.0,30.01,WNW,292,0.0,-999.0,91,-99.99,,,0.00,Acu-Link.com,2013-08-16 06:01:00,
2013-08-16 02:17:00,61.0,58.0,30.00,NW,315,0.0,-999.0,90,-99.99,,,0.00,Acu-Link.com,2013-08-16 06:17:00,
2013-08-16 02:32:00,61.0,58.4,30.00,SW,225,0.0,-999.0,91,-99.99,,,0.00,Acu-Link.com,2013-08-16 06:32:00,
2013-08-16 02:47:00,61.0,58.0,29.99,SW,225,1.7,-999.0,90,-99.99,,,0.00,Acu-Link.com,2013-08-16 06:47:00,
2013-08-16 03:03:00,61.2,58.2,29.99,WNW,292,2.2,-999.0,90,-99.99,,,0.00,Acu-Link.com,2013-08-16 07:03:00,
2013-08-16 03:18:00,61.2,57.3,29.98,NNW,337,1.1,-999.0,87,-99.99,,,0.00,Acu-Link.com,2013-08-16 07:18:00,
2013-08-16 03:33:00,60.8,57.5,29.98,ESE,112,0.0,-999.0,89,-99.99,,,0.00,Acu-Link.com,2013-08-16 07:33:00,
2013-08-16 03:48:00,61.0,57.7,29.98,East,90,0.0,-999.0,89,-99.99,,,0.00,Acu-Link.com,2013-08-16 07:48:00,
2013-08-16 04:04:00,60.8,57.5,29.98,WNW,292,0.0,-999.0,89,-99.99,,,0.00,Acu-Link.com,2013-08-16 08:04:00,
2013-08-16 04:19:00,61.2,57.0,29.98,West,270,2.7,-999.0,86,-99.99,,,0.00,Acu-Link.com,2013-08-16 08:19:00,
2013-08-16 04:34:00,61.2,57.6,29.98,NE,45,1.1,-999.0,88,-99.99,,,0.00,Acu-Link.com,2013-08-16 08:34:00,
2013-08-16 04:49:00,61.2,56.0,29.99,WNW,292,1.7,-999.0,83,-99.99,,,0.00,Acu-Link.com,2013-08-16 08:49:00,
2013-08-16 05:04:00,61.3,56.7,29.99,SSE,157,1.7,-999.0,85,-99.99,,,0.00,Acu-Link.com,2013-08-16 09:04:00,
2013-08-16 05:20:00,61.5,56.9,29.99,NW,315,1.7,-999.0,85,-99.99,,,0.00,Acu-Link.com,2013-08-16 09:20:00,
2013-08-16 05:35:00,61.5,56.3,30.00,NW,315,3.7,-999.0,83,-99.99,,,0.00,Acu-Link.com,2013-08-16 09:35:00,
2013-08-16 05:50:00,61.5,57.3,29.99,West,270,2.7,-999.0,86,-99.99,,,0.00,Acu-Link.com,2013-08-16 09:50:00,
2013-08-16 06:05:00,61.3,56.4,29.99,WNW,292,0.0,-999.0,84,-99.99,,,0.00,Acu-Link.com,2013-08-16 10:05:00,
2013-08-16 06:21:00,61.3,56.7,30.00,West,270,3.7,-999.0,85,-99.99,,,0.00,Acu-Link.com,2013-08-16 10:21:00,
2013-08-16 06:36:00,61.3,56.7,29.99,NW,315,2.2,-999.0,85,-99.99,,,0.00,Acu-Link.com,2013-08-16 10:36:00,
2013-08-16 06:51:00,61.3,57.4,30.00,ESE,112,0.0,-999.0,87,-99.99,,,0.00,Acu-Link.com,2013-08-16 10:51:00,
2013-08-16 07:07:00,61.2,57.3,30.00,ESE,112,0.0,-999.0,87,-99.99,,,0.00,Acu-Link.com,2013-08-16 11:07:00,
2013-08-16 07:22:00,61.2,57.3,30.01,SW,225,0.0,-999.0,87,-99.99,,,0.00,Acu-Link.com,2013-08-16 11:22:00,
2013-08-16 07:37:00,61.2,57.6,30.01,East,90,0.0,-999.0,88,-99.99,,,0.00,Acu-Link.com,2013-08-16 11:37:00,
2013-08-16 07:52:00,61.0,57.7,30.01,WNW,292,1.7,-999.0,89,-99.99,,,0.00,Acu-Link.com,2013-08-16 11:52:00,
2013-08-16 08:08:00,61.0,58.4,30.01,East,90,0.0,-999.0,91,-99.99,,,0.00,Acu-Link.com,2013-08-16 12:08:00,
2013-08-16 08:23:00,61.2,58.5,30.01,ENE,67,0.0,-999.0,91,-99.99,,,0.00,Acu-Link.com,2013-08-16 12:23:00,
2013-08-16 08:38:00,61.2,58.5,30.02,WSW,247,0.0,-999.0,91,-99.99,,,0.00,Acu-Link.com,2013-08-16 12:38:00,
2013-08-16 08:54:00,61.7,59.3,30.02,SSE,157,1.7,-999.0,92,-99.99,,,0.00,Acu-Link.com,2013-08-16 12:54:00,
2013-08-16 09:09:00,61.9,58.6,30.02,WNW,292,1.7,-999.0,89,-99.99,,,0.00,Acu-Link.com,2013-08-16 13:09:00,
2013-08-16 09:24:00,62.2,58.6,30.02,ENE,67,1.7,-999.0,88,-99.99,,,0.00,Acu-Link.com,2013-08-16 13:24:00,
2013-08-16 09:39:00,62.6,59.3,30.01,WSW,247,1.7,-999.0,89,-99.99,,,0.00,Acu-Link.com,2013-08-16 13:39:00,
2013-08-16 09:55:00,64.0,59.4,30.01,SSE,157,0.0,-999.0,85,-99.99,,,0.00,Acu-Link.com,2013-08-16 13:55:00,
2013-08-16 10:10:00,65.1,59.1,30.02,NW,315,2.7,-999.0,81,-99.99,,,0.00,Acu-Link.com,2013-08-16 14:10:00,
2013-08-16 10:25:00,64.2,58.2,30.03,ESE,112,1.1,-999.0,81,-99.99,,,0.00,Acu-Link.com,2013-08-16 14:25:00,
2013-08-16 10:40:00,64.0,59.7,30.03,WNW,292,1.7,-999.0,86,-99.99,,,0.00,Acu-Link.com,2013-08-16 14:40:00,
2013-08-16 10:55:00,64.6,59.7,30.03,SSW,202,1.7,-999.0,84,-99.99,,,0.00,Acu-Link.com,2013-08-16 14:55:00,
2013-08-16 11:11:00,64.2,59.6,30.03,SW,225,2.2,-999.0,85,-99.99,,,0.00,Acu-Link.com,2013-08-16 15:11:00,
2013-08-16 11:26:00,64.2,59.3,30.03,ESE,112,0.0,-999.0,84,-99.99,,,0.00,Acu-Link.com,2013-08-16 15:26:00,
2013-08-16 11:41:00,64.8,59.8,30.04,South,180,1.1,-999.0,84,-99.99,,,0.00,Acu-Link.com,2013-08-16 15:41:00,
2013-08-16 11:56:00,63.0,59.7,30.03,West,270,0.0,-999.0,89,-99.99,,,0.00,Acu-Link.com,2013-08-16 15:56:00,
2013-08-16 12:12:00,64.4,60.8,30.03,East,90,1.7,-999.0,88,-99.99,,,0.01,Acu-Link.com,2013-08-16 16:12:00,
2013-08-16 12:28:00,65.3,61.7,30.03,SSE,157,0.0,-999.0,88,-99.99,,,0.01,Acu-Link.com,2013-08-16 16:28:00,
2013-08-16 12:43:00,66.9,61.2,30.03,SE,135,0.0,-999.0,82,-99.99,,,0.01,Acu-Link.com,2013-08-16 16:43:00,
2013-08-16 12:58:00,67.8,61.0,30.03,WNW,292,2.7,-999.0,79,-99.99,,,0.01,Acu-Link.com,2013-08-16 16:58:00,
2013-08-16 13:13:00,69.1,61.2,30.03,West,270,5.3,-999.0,76,-99.99,,,0.01,Acu-Link.com,2013-08-16 17:13:00,
2013-08-16 13:29:00,68.5,61.0,30.02,East,90,1.7,-999.0,77,-99.99,,,0.01,Acu-Link.com,2013-08-16 17:29:00,
2013-08-16 13:44:00,69.1,61.2,30.02,ENE,67,1.7,-999.0,76,-99.99,,,0.01,Acu-Link.com,2013-08-16 17:44:00,
2013-08-16 13:59:00,68.9,61.7,30.01,SE,135,2.2,-999.0,78,-99.99,,,0.01,Acu-Link.com,2013-08-16 17:59:00,
2013-08-16 14:15:00,69.6,61.7,30.01,West,270,2.2,-999.0,76,-99.99,,,0.01,Acu-Link.com,2013-08-16 18:15:00,
2013-08-16 14:30:00,70.9,61.4,30.01,WNW,292,1.7,-999.0,72,-99.99,,,0.01,Acu-Link.com,2013-08-16 18:30:00,
2013-08-16 14:45:00,71.8,61.5,30.01,ESE,112,2.2,-999.0,70,-99.99,,,0.01,Acu-Link.com,2013-08-16 18:45:00,
2013-08-16 15:01:00,72.9,62.1,30.00,SE,135,2.2,-999.0,69,-99.99,,,0.01,Acu-Link.com,2013-08-16 19:01:00,
2013-08-16 15:16:00,73.0,61.0,29.99,ENE,67,1.7,-999.0,66,-99.99,,,0.01,Acu-Link.com,2013-08-16 19:16:00,
2013-08-16 15:31:00,71.8,62.3,30.00,SSE,157,2.2,-999.0,72,-99.99,,,0.01,Acu-Link.com,2013-08-16 19:31:00,
2013-08-16 15:46:00,73.4,64.2,29.99,West,270,2.7,-999.0,73,-99.99,,,0.01,Acu-Link.com,2013-08-16 19:46:00,
2013-08-16 16:02:00,74.1,62.8,29.98,West,270,1.7,-999.0,68,-99.99,,,0.01,Acu-Link.com,2013-08-16 20:02:00,
2013-08-16 16:17:00,73.2,62.0,29.97,West,270,1.1,-999.0,68,-99.99,,,0.01,Acu-Link.com,2013-08-16 20:17:00,
2013-08-16 16:32:00,72.1,62.6,29.97,West,270,3.2,-999.0,72,-99.99,,,0.01,Acu-Link.com,2013-08-16 20:32:00,
2013-08-16 16:48:00,72.3,62.8,29.97,West,270,2.2,-999.0,72,-99.99,,,0.01,Acu-Link.com,2013-08-16 20:48:00,
2013-08-16 17:03:00,72.3,62.0,29.97,WNW,292,1.7,-999.0,70,-99.99,,,0.01,Acu-Link.com,2013-08-16 21:03:00,
2013-08-16 17:18:00,72.0,62.1,29.98,SW,225,2.7,-999.0,71,-99.99,,,0.01,Acu-Link.com,2013-08-16 21:18:00,
2013-08-16 17:34:00,71.8,63.1,29.97,SW,225,2.2,-999.0,74,-99.99,,,0.01,Acu-Link.com,2013-08-16 21:34:00,
2013-08-16 17:49:00,71.8,63.1,29.98,ENE,67,0.0,-999.0,74,-99.99,,,0.01,Acu-Link.com,2013-08-16 21:49:00,
2013-08-16 18:04:00,70.9,62.9,29.98,South,180,1.1,-999.0,76,-99.99,,,0.01,Acu-Link.com,2013-08-16 22:04:00,
2013-08-16 18:19:00,70.5,61.4,29.98,East,90,1.7,-999.0,73,-99.99,,,0.01,Acu-Link.com,2013-08-16 22:19:00,
2013-08-16 18:34:00,70.0,61.3,29.99,NNE,22,1.7,-999.0,74,-99.99,,,0.01,Acu-Link.com,2013-08-16 22:34:00,
2013-08-16 18:49:00,69.4,62.6,29.99,NNE,22,0.0,-999.0,79,-99.99,,,0.01,Acu-Link.com,2013-08-16 22:49:00,
2013-08-16 19:05:00,69.3,62.5,29.98,South,180,0.0,-999.0,79,-99.99,,,0.01,Acu-Link.com,2013-08-16 23:05:00,
2013-08-16 19:20:00,68.9,63.5,29.99,ENE,67,0.0,-999.0,83,-99.99,,,0.01,Acu-Link.com,2013-08-16 23:20:00,
2013-08-16 19:35:00,68.2,63.2,30.00,SE,135,0.0,-999.0,84,-99.99,,,0.01,Acu-Link.com,2013-08-16 23:35:00,
2013-08-16 19:51:00,67.6,62.6,30.00,East,90,0.0,-999.0,84,-99.99,,,0.01,Acu-Link.com,2013-08-16 23:51:00,
2013-08-16 20:06:00,67.1,61.1,30.01,SSE,157,0.0,-999.0,81,-99.99,,,0.01,Acu-Link.com,2013-08-17 00:06:00,
2013-08-16 20:21:00,66.2,61.2,30.01,NE,45,0.0,-999.0,84,-99.99,,,0.01,Acu-Link.com,2013-08-17 00:21:00,
2013-08-16 20:37:00,65.7,61.1,30.02,East,90,1.1,-999.0,85,-99.99,,,0.01,Acu-Link.com,2013-08-17 00:37:00,
2013-08-16 20:52:00,65.3,61.3,30.02,ESE,112,0.0,-999.0,87,-99.99,,,0.01,Acu-Link.com,2013-08-17 00:52:00,
2013-08-16 21:07:00,64.4,61.4,30.03,West,270,0.0,-999.0,90,-99.99,,,0.01,Acu-Link.com,2013-08-17 01:07:00,
2013-08-16 21:22:00,64.0,60.7,30.04,ESE,112,0.0,-999.0,89,-99.99,,,0.01,Acu-Link.com,2013-08-17 01:22:00,
2013-08-16 21:37:00,63.5,60.5,30.04,NW,315,0.0,-999.0,90,-99.99,,,0.01,Acu-Link.com,2013-08-17 01:37:00,
2013-08-16 21:53:00,63.0,60.3,30.04,NNE,22,0.0,-999.0,91,-99.99,,,0.01,Acu-Link.com,2013-08-17 01:53:00,
2013-08-16 22:08:00,62.4,60.0,30.04,ESE,112,0.0,-999.0,92,-99.99,,,0.01,Acu-Link.com,2013-08-17 02:08:00,
2013-08-16 22:23:00,62.4,60.0,30.05,East,90,0.0,-999.0,92,-99.99,,,0.01,Acu-Link.com,2013-08-17 02:23:00,
2013-08-16 22:39:00,62.4,60.3,30.05,WNW,292,3.2,-999.0,93,-99.99,,,0.01,Acu-Link.com,2013-08-17 02:39:00,
2013-08-16 22:54:00,62.2,60.1,30.04,ESE,112,1.1,-999.0,93,-99.99,,,0.01,Acu-Link.com,2013-08-17 02:54:00,
2013-08-16 23:10:00,62.1,60.0,30.04,NE,45,0.0,-999.0,93,-99.99,,,0.01,Acu-Link.com,2013-08-17 03:10:00,
2013-08-16 23:25:00,61.9,59.9,30.05,East,90,1.7,-999.0,93,-99.99,,,0.01,Acu-Link.com,2013-08-17 03:25:00,
2013-08-16 23:40:00,61.5,59.8,30.05,SE,135,2.2,-999.0,94,-99.99,,,0.01,Acu-Link.com,2013-08-17 03:40:00,
2013-08-16 23:55:00,61.7,59.3,30.05,NNE,22,2.2,-999.0,92,-99.99,,,0.01,Acu-Link.com,2013-08-17 03:55:00,